Pittsfield, MA

5:13 AM EST on December 09, 2019 (GMT -0500)
Pittsfield Municipal

Weather History for KPSF - August, 2019

Change the Weather History Date:

Monday, August 12, 2019

  Actual Average Record
Temperature  
Mean Temperature 67 °F 67 °F  
Max Temperature 82 °F 78 °F 92 °F (1944)
Min Temperature 51 °F 57 °F 42 °F (2006)
Degree Days  
Heating Degree Days 0 1  
Month to date heating degree days 2 12  
Since 1 June heating degree days 69 144  
Since 1 July heating degree days 2 43  
Cooling Degree Days 2 4  
Month to date cooling degree days 42 48  
Year to date cooling degree days 318 225  
Since 1 June cooling degree days 312 212  
Growing Degree Days 16 (Base 50)    
Moisture  
Dew Point 56 °F    
Average Humidity 69    
Maximum Humidity 93    
Minimum Humidity 45    
Precipitation  
Precipitation 0.02 in 0.12 in 1.48 in (1937)
Month to date precipitation 0.51 1.68  
Year to date precipitation 26.65 27.37  
Sea Level Pressure  
Sea Level Pressure 29.88 in    
Wind  
Wind Speed 4 mph (WSW)    
Max Wind Speed 16 mph    
Max Gust Speed 20 mph    
Visibility 10 miles    
Events Rain    
T = Trace of Precipitation, MM = Missing Value Source: NWS Daily Summary

Daily Weather History Graph

Daily Weather History Graph

Search for Another Location

Airport or City:

Astronomy

Aug. 12, 2019 Rise Set
Actual Time 5:56 AM EDT 7:58 PM EDT
Civil Twilight 5:26 AM EDT 8:29 PM EDT
Nautical Twilight 4:48 AM EDT 9:06 PM EDT
Astronomical Twilight 4:07 AM EDT 9:47 PM EDT
Moon 6:29 PM EDT (8/12) 3:00 AM EDT (8/12)
Length of Visible Light 15h 03m
Length of Day
14h 02m
Waxing Gibbous, 93% of the Moon is Illuminated
Aug 12
Waxing Gibbous
Aug 15
Full
Aug 23
Last Quarter
Aug 30
New
Sep 5
First Quarter

Hourly Weather History & Observations

Time (EDT) Temp. Heat Index Dew Point Humidity Pressure Visibility Wind Dir Wind Speed Gust Speed Precip Events Conditions
12:54 AM 57.9 °F - 51.1 °F 78% 29.93 in 10.0 mi Calm Calm - N/A   Clear
1:54 AM 59.0 °F - 51.1 °F 75% 29.93 in 10.0 mi Calm Calm - N/A   Clear
2:54 AM 55.0 °F - 51.1 °F 86% 29.93 in 10.0 mi Calm Calm - N/A   Clear
3:54 AM 53.1 °F - 50.0 °F 89% 29.93 in 10.0 mi Calm Calm - N/A   Clear
4:54 AM 53.1 °F - 50.0 °F 89% 29.94 in 10.0 mi Calm Calm - N/A   Clear
5:54 AM 51.1 °F - 48.9 °F 92% 29.95 in 10.0 mi Calm Calm - N/A   Clear
6:54 AM 54.0 °F - 51.1 °F 90% 29.95 in 10.0 mi Calm Calm - N/A   Clear
7:54 AM 61.0 °F - 54.0 °F 78% 29.93 in 10.0 mi Calm Calm - N/A   Clear
8:54 AM 66.9 °F - 55.9 °F 68% 29.94 in 10.0 mi Calm Calm - N/A   Clear
9:54 AM 72.0 °F - 57.0 °F 59% 29.92 in 10.0 mi SW 8.1 mph - N/A   Clear
10:54 AM 75.0 °F - 57.0 °F 53% 29.91 in 10.0 mi West 11.5 mph - N/A   Clear
11:54 AM 77.0 °F - 57.9 °F 52% 29.89 in 10.0 mi West 11.5 mph 16.1 mph N/A   Clear
12:54 PM 80.1 °F 80.4 °F 57.0 °F 45% 29.88 in 10.0 mi WNW 8.1 mph 17.3 mph N/A   Clear
1:54 PM 79.0 °F - 57.0 °F 47% 29.85 in 10.0 mi West 9.2 mph 19.6 mph N/A   Partly Cloudy
2:54 PM 80.1 °F 80.4 °F 57.0 °F 45% 29.84 in 10.0 mi SW 11.5 mph - N/A   Mostly Cloudy
3:54 PM 79.0 °F - 57.9 °F 48% 29.84 in 10.0 mi SSW 8.1 mph - N/A   Mostly Cloudy
4:54 PM 78.1 °F - 59.0 °F 52% 29.83 in 10.0 mi WSW 5.8 mph - N/A   Overcast
5:54 PM 78.1 °F - 60.1 °F 54% 29.82 in 10.0 mi SW 3.5 mph - N/A   Overcast
6:54 PM 75.9 °F - 60.1 °F 58% 29.82 in 10.0 mi WSW 3.5 mph - N/A   Overcast
7:54 PM 73.9 °F - 59.0 °F 59% 29.80 in 10.0 mi SSW 4.6 mph - N/A   Partly Cloudy
8:54 PM 72.0 °F - 59.0 °F 64% 29.81 in 10.0 mi WSW 4.6 mph - N/A   Overcast
9:54 PM 70.0 °F - 61.0 °F 73% 29.81 in 10.0 mi WNW 4.6 mph - N/A   Overcast
10:54 PM 69.1 °F - 63.0 °F 81% 29.81 in 10.0 mi SSW 6.9 mph - 0.02 in Rain Light Rain
11:54 PM 66.0 °F - 63.0 °F 90% 29.80 in 10.0 mi WNW 3.5 mph - 0.00 in   Scattered Clouds